Regional Weather Roundup
Issued by NWS Cleveland, OH

Home | Current Version | Previous Version | Graphics & Text | Print | Product List | Glossary On
Versions: 1 2 3 4 5 6 7 8 9 10 11 12 13 14 15 16 17 18 19 20 21 22 23 24 25 26 27 28 29 30 31 32 33 34 35 36 37 38 39 40 41 42 43 44 45 46 47 48 49 50
000
ASUS41 KCLE 210512
RWRCLE
OHIO REGIONAL WEATHER ROUNDUP
NATIONAL WEATHER SERVICE WILMINGTON, OH
1200 AM EST TUE NOV 21 2017

NOTE: "FAIR" INDICATES FEW OR NO CLOUDS BELOW 12,000 FEET WITH NO
SIGNIFICANT WEATHER AND/OR OBSTRUCTIONS TO VISIBILITY.

OHZ001>008-015>018-024>027-034-035-043-044-210600-
   NORTHWEST OHIO

CITY           SKY/WX    TMP DP  RH WIND       PRES   REMARKS
DEFIANCE       FAIR      37  26  64 SW12      29.87R
FINDLAY        FAIR      39  26  59 S16       29.88F
TOLEDO EXPRESS FAIR      41  26  55 SW12      29.86R
TOLEDO EXEC    FAIR      39  26  59 SW14      29.88R
LIMA           FAIR      39  26  59 S15G23    29.88F
$$

OHZ009>014-019>023-028>033-038-089-210600-
   NORTHEAST OHIO

CITY           SKY/WX    TMP DP  RH WIND       PRES   REMARKS
CLE-HOPKINS    FAIR      41  24  51 S15G23    29.93F
CLE-LAKEFRONT  FAIR      42  21  43 S17G29    29.89F
CUY CO. ARPT   NOT AVBL
LORAIN-ELYRIA  FAIR      40  20  44 SW17G24   29.90F
ASHTABULA      FAIR      38  23  55 S15G23    29.93S
AKRON-CANTON   FAIR      39  22  50 S18       29.95F
WOOSTER        FAIR      37  23  56 SW14G22   29.95F
MANSFIELD      FAIR      38  24  57 S18G26    29.92F
YOUNGSTOWN     MOCLDY    37  22  54 S8        29.96F
$$

OHZ042-051>053-060>062-070>072-077>081-210600-
  SOUTHWEST OHIO

CITY           SKY/WX    TMP DP  RH WIND       PRES   REMARKS
CINC-COVINGTON FAIR      38  26  62 S9        29.98F
CINC-LUNKEN    FAIR      34  28  79 SW6       30.02F WCI  29
HAMILTON       FAIR      32  27  81 CALM      30.00F
DAYTON         FAIR      40  25  55 S17G28    29.95F
WRIGHT-PAT AFB CLEAR     37  23  55 S10       29.96F
DAYTON GENERAL FAIR      36  25  64 S13       29.96F
WILMINGTON     FAIR      35  26  69 S10       29.98F WCI  27
$$

OHZ036-037-039>041-045>050-054>059-063>069-073>076-082>088-210600-
  CENTRAL AND SOUTHEAST OHIO

CITY           SKY/WX    TMP DP  RH WIND       PRES   REMARKS
COLUMBUS       FAIR      38  24  57 S9        29.98F
OSU AIRPORT    FAIR      36  25  64 S10       29.97F
BOLTON FIELD   FAIR      32  25  75 S7        29.99F WCI  25
RICKENBACK AFB FAIR      35  25  66 S10       29.98F WCI  27
NEWARK         FAIR      29  23  78 CALM      29.99F
MARION         FAIR      37  24  59 S16       29.94F
LANCASTER      FAIR      38  23  55 S7        30.00F
ZANESVILLE     FAIR      35  21  56 S6        30.02S
NEW PHILLY     FAIR      39  23  52 S7        30.01F
$$




USA.gov is the U.S. government's official web portal to all federal, state and local government web resources and services.